CZ-3C DEB, 40866

Orbit data source: Space-Track

CZ-3C DEB, 40866 is space debris in HEO originally from a launch on Fri, 24 Feb 2012 UTC launched from the Xichang Space Center, China (XSC). Debris objects in space refer to the collection of defunct objects orbiting the Earth. Examples of debris include non-operational satellites, rocket bodies, and fragments generated from explosions, collisions, or faulty payload assembly.

Loading next visibility...
Identifier
40866, 2012-008AG
Orbit
HEO
Country
Flag of CNCN / PRC
Related business
Manufacturer
CALT
Mission
Spacecraft
Bus & Motor
Unknown
Mass
Unknown
Launch date (UTC)
2012-02-24 (14 years ago)
Launch vehicle
Unknown
Launch site
Xichang Space Center, China (XSC)
Object type
Payload
Rocket body
Debris
Shape & HBR
Unknown
Radar Cross Section
Medium (>0.1 m² and <1 m²)

Expand to show TLE details & history
Last TLE update: 3 months ago

TLE from 3 months ago
0 CZ-3C DEB
1 40866U 12008AG  26151.97635250 -.00000077  00000-0 -27075-3 0  9997
2 40866  20.1149 105.8182 7014509  59.0677 351.2610  2.25419281  1247
Epoch: 2026-05-31T23:25Z
TLE epoch observation values (Epoch: 2026-05-31T23:25:56.856Z)
Latitude
0.00001°
Longitude
-135.31196°
Altitude
2,832.289 km
Speed
8.386 km/s
True Right ascension
07h 02m 34s
True Declination
0° 00' 00"
Sunlit
Object was in daylight at epoch
Visualization orbit readout
Latitude
Unknown
Longitude
Unknown
Altitude
Unknown
Speed
Unknown
Apparent Right ascension
Unknown
Apparent Declination
Unknown
Sunlit
N/A
Visualization observer readout
Local Sidereal Time
20:03:52
Azimuth
Unknown
Elevation
Unknown
Doppler factor
Unknown
Orbital elements
Apogee altitude
35,433.722 km
Perigee altitude
958.48 km
Semi-major axis
24,574.238 km
Eccentricity
0.70145
Inclination
20.1149°
RAAN
105.8182°
Arg. of periapsis
59.0677°
True anomaly
300.43937°
Mean anomaly
351.261°
Eccentric anomaly
333.04012°
Mean motion
0.56341 °/min
Orbital period
638.97 mins
BSTAR
-0.00027075
Loading maneuver chart data...
Computing Atmospheric mass density...
Loading historical data...
Loading historical data...
Loading historical data...
Loading historical data...
Loading historical data...
Loading historical data...
Loading historical data...

Documentation

Showing up to 5 results
|